Regional Weather Roundup
Issued by NWS

Home | Current Version | Previous Version | Text Only | Print | Product List | Glossary On
Versions: 1 2 3 4 5 6 7 8 9 10 11 12 13 14 15 16 17 18 19 20 21 22 23 24 25 26 27
000
ASUS42 KFFC 250503
RWRGA
WEATHER ROUNDUP FOR GEORGIA
NATIONAL WEATHER SERVICE PEACHTREE CITY GA
100 AM EDT WED MAY 25 2016

NOTE: "FAIR" INDICATES FEW OR NO CLOUDS BELOW 12,000 FEET WITH NO
SIGNIFICANT WEATHER AND/OR OBSTRUCTIONS TO VISIBILITY.

* = USE WITH CAUTION. THE STATIONS MARKED WITH AN ASTERISK MAY NOT
REPORT WEATHER SUCH AS PRECIPITATION, FOG, OR THUNDER AND ARE NOT
QUALITY CONTROLLED BY NWS.

THE REMARK "TC" DENOTES TEMPERATURE READING IN DEGREES CELSIUS.

GAZ001>058-250600-
NORTH GEORGIA

CITY           SKY/WX    TMP DP  RH WIND       PRES   REMARKS
ATLANTA        CLEAR     70  54  56 SW3       30.18S
ATHENS         CLEAR     67  55  65 CALM      30.18R
CHAMBLEE       CLEAR     64  56  75 CALM      30.18S
PEACHTREE CITY CLEAR     60  57  89 CALM      30.18F
ROME           CLEAR     63  58  83 CALM      30.15S
WEST ATLANTA   CLEAR     63  57  81 CALM      30.18R
GAINESVILLE    CLEAR     66  53  63 CALM      30.20S
CARTERSVILLE   CLEAR     60  57  89 CALM      30.17S


CITY           SKY/WX    TMP DP  RH WIND       PRES   REMARKS
DALTON*        CLEAR     63  59  88 CALM      30.16S
MARIETTA       CLEAR     67  56  68 CALM      30.18S
CANTON*        CLEAR     61  55  82 CALM      30.20R
BLAIRSVILLE*     N/A    N/A N/A N/A MISG      30.22S
$$

GAZ059>098-102>109-250600-
CENTRAL GEORGIA

CITY           SKY/WX    TMP DP  RH WIND       PRES   REMARKS
AUGUSTA-BUSH   PTCLDY    61  60  97 CALM      30.17R
AUGUSTA-DANIEL CLEAR     69  62  78 SE3       30.18R
COLUMBUS       CLEAR     66  59  78 E3        30.15F
MACON          CLEAR     62  59  90 CALM      30.17S
ROBINS AFB     CLEAR     64  62  95 SE2       30.16S


CITY           SKY/WX    TMP DP  RH WIND       PRES   REMARKS
LAGRANGE*      CLEAR     63  62  97 CALM      30.17S
SYLVANIA*      PTCLDY    71  67  86 CALM      30.19S
MILLEDGEVILLE* CLEAR     64  63  94 CALM      30.17S
$$

GAZ099>101-110>166-250600-
SOUTH GEORGIA

CITY           SKY/WX    TMP DP  RH WIND       PRES   REMARKS
SAVANNAH       PTCLDY    71  66  84 S5        30.19S
VALDOSTA       CLEAR     72  60  66 SE6       30.17F
ALMA           CLEAR     64  61  90 CALM      30.18S
ST SIMONS      CLEAR     76  66  71 S8        30.18F
FT STEWART     PTCLDY    66  63  92 CALM      30.17S
ALBANY         CLEAR     65  55  70 CALM      30.17F
HUNTER AFB     CLOUDY    73  69  89 VRB2      30.16S
MOODY AFB      PTCLDY    71  59  66 SE6       30.17S
BRUNSWICK      CLEAR     72  68  88 CALM      30.19F


CITY           SKY/WX    TMP DP  RH WIND       PRES   REMARKS
BAINBRIDGE*    CLEAR     72  61  68 SW3       30.16F
MOULTRIE*      PTCLDY    72  61  68 E3        30.18S
VIDALIA*       PTCLDY    70  63  78 CALM      30.19S
WAYCROSS*      CLEAR     71  63  73 S6        30.19R
DOUGLAS*       CLEAR     72  59  64 CALM      30.20R
$$




USA.gov is the U.S. government's official web portal to all federal, state and local government web resources and services.